This demonstration page uses our WeatherBlox Daily Observations layout. Learn more.

Left ArrowRight Arrow

41.86663, -103.66717

Hourly Observations for July 25, 2020

Temp ( °F °C ) Dew Point ( °F °C ) Humidity (%) Winds ( mph kmh ) Pressure ( in mb ) Visibility ( mi km ) Precip ( " mm )
12:53 am 00:53 Clear 70 21.1 61 16.1 73 73 ENE 6 9 29.83 1010 10 16.0934 0 0
1:53 am 01:53 Clear 69 20.6 64 17.8 84 84 E 6 9 29.81 1009 10 16.0934 0 0
2:53 am 02:53 Clear 68 20 64 17.8 87 87 E 6 9 29.8 1009 10 16.0934 0 0
3:53 am 03:53 Clear 68 20 64 17.8 87 87 E 7 11 29.81 1009 10 16.0934 0 0
4:53 am 04:53 Clear 67 19.4 64 17.8 91 91 E 6 9 29.81 1009 10 16.0934 0 0
5:53 am 05:53 Sunny 67 19.4 63 17.2 87 87 Calm 29.82 1010 10 16.0934 0 0
6:53 am 06:53 Sunny 71 21.7 64 17.8 79 79 E 3 6 29.82 1010 10 16.0934 0 0
7:53 am 07:53 Sunny 76 24.4 64 17.8 67 67 Calm 29.82 1010 10 16.0934 0 0
8:53 am 08:53 Sunny 78 25.6 62 16.7 58 58 NW 5 7 29.85 1011 10 16.0934 0 0
9:53 am 09:53 Sunny 82 27.8 61 16.1 49 49 WNW 6 9 29.84 1011 10 16.0934 0 0
10:53 am 10:53 Sunny 87 30.6 57 13.9 36 36 WNW 8 13 29.84 1011 10 16.0934 0 0
11:53 am 11:53 Sunny 90 32.2 55 12.8 31 31 NW 9 15 29.83 1010 10 16.0934 0 0
12:53 pm 12:53 Sunny 92 33.3 53 11.7 27 27 WNW 8 13 29.82 1010 10 16.0934 0 0
1:53 pm 13:53 Sunny 94 34.4 47 8.3 20 20 W 7 11 29.82 1010 10 16.0934 0 0
2:53 pm 14:53 Sunny 97 36.1 48 8.9 19 19 W 10 17 29.8 1009 10 16.0934 0 0
3:53 pm 15:53 Sunny 97 36.1 42 5.6 15 15 WNW 10 17 29.79 1009 10 16.0934 0 0
4:53 pm 16:53 Sunny 92 33.3 47 8.3 21 21 WNW 12 19 29.81 1009 10 16.0934 0 0
5:53 pm 17:53 Sunny 89 31.7 47 8.3 23 23 WNW 9 15 29.81 1009 10 16.0934 0 0
6:53 pm 18:53 Mostly Sunny 86 30 54 12.2 33 33 WNW 6 9 29.8 1009 10 16.0934 0 0
7:53 pm 19:53 Sunny 84 28.9 56 13.3 38 38 Calm 29.8 1009 10 16.0934 0 0
8:53 pm 20:53 Clear 80 26.7 62 16.7 54 54 ESE 10 17 29.83 1010 10 16.0934 0 0
9:53 pm 21:53 Clear 77 25 63 17.2 62 62 E 5 7 29.84 1011 10 16.0934 0 0
10:53 pm 22:53 Clear 75 23.9 63 17.2 66 66 E 6 9 29.86 1011 10 16.0934 0 0
11:53 pm 23:53 Clear 71 21.7 63 17.2 76 76 E 5 7 29.88 1012 10 16.0934 0 0

Powered by AerisWeather